owner,sensor,date,latitude,longitude,air_temperature,qcFlag 
COMPS,ioos:station:USF.COMPS:FHP:1,2016-02-01T00:00:00Z,28.1530,-82.8010,19.47,1111122 
COMPS,ioos:station:USF.COMPS:FHP:1,2016-02-01T00:06:00Z,28.1530,-82.8010,19.38,1111122 
COMPS,ioos:station:USF.COMPS:FHP:1,2016-02-01T00:12:00Z,28.1530,-82.8010,19.36,1111122 
COMPS,ioos:station:USF.COMPS:FHP:1,2016-02-01T00:18:00Z,28.1530,-82.8010,19.43,1111122 
COMPS,ioos:station:USF.COMPS:FHP:1,2016-02-01T00:24:00Z,28.1530,-82.8010,19.6,1111122 
COMPS,ioos:station:USF.COMPS:FHP:1,2016-02-01T00:30:00Z,28.1530,-82.8010,19.57,1111122 
COMPS,ioos:station:USF.COMPS:FHP:1,2016-02-01T00:36:00Z,28.1530,-82.8010,19.4,1111122 
COMPS,ioos:station:USF.COMPS:FHP:1,2016-02-01T00:42:00Z,28.1530,-82.8010,18.99,1111122 
COMPS,ioos:station:USF.COMPS:FHP:1,2016-02-01T00:48:00Z,28.1530,-82.8010,18.15,1111122 
COMPS,ioos:station:USF.COMPS:FHP:1,2016-02-01T00:54:00Z,28.1530,-82.8010,17.69,1111122 
COMPS,ioos:station:USF.COMPS:FHP:1,2016-02-01T04:00:00Z,28.1530,-82.8010,17.88,1111122 
COMPS,ioos:station:USF.COMPS:FHP:1,2016-02-01T04:06:00Z,28.1530,-82.8010,17.98,1111122 
COMPS,ioos:station:USF.COMPS:FHP:1,2016-02-01T04:12:00Z,28.1530,-82.8010,18.21,1111122 
COMPS,ioos:station:USF.COMPS:FHP:1,2016-02-01T04:18:00Z,28.1530,-82.8010,18.29,1111122 
COMPS,ioos:station:USF.COMPS:FHP:1,2016-02-01T04:24:00Z,28.1530,-82.8010,18.35,1111122 
COMPS,ioos:station:USF.COMPS:FHP:1,2016-02-01T04:30:00Z,28.1530,-82.8010,18.33,1111122 
COMPS,ioos:station:USF.COMPS:FHP:1,2016-02-01T04:36:00Z,28.1530,-82.8010,18.34,1111122 
COMPS,ioos:station:USF.COMPS:FHP:1,2016-02-01T04:42:00Z,28.1530,-82.8010,18.32,1111122 
COMPS,ioos:station:USF.COMPS:FHP:1,2016-02-01T04:48:00Z,28.1530,-82.8010,18.32,1111122 
COMPS,ioos:station:USF.COMPS:FHP:1,2016-02-01T04:54:00Z,28.1530,-82.8010,18.36,1111122 
COMPS,ioos:station:USF.COMPS:FHP:1,2016-02-01T05:00:00Z,28.1530,-82.8010,18.29,1111122 
COMPS,ioos:station:USF.COMPS:FHP:1,2016-02-01T05:06:00Z,28.1530,-82.8010,18.19,1111122 
COMPS,ioos:station:USF.COMPS:FHP:1,2016-02-01T05:12:00Z,28.1530,-82.8010,18.37,1111122 
COMPS,ioos:station:USF.COMPS:FHP:1,2016-02-01T05:18:00Z,28.1530,-82.8010,18.3,1111122 
COMPS,ioos:station:USF.COMPS:FHP:1,2016-02-01T05:24:00Z,28.1530,-82.8010,18.2,1111122 
COMPS,ioos:station:USF.COMPS:FHP:1,2016-02-01T05:30:00Z,28.1530,-82.8010,18.12,1111122 
COMPS,ioos:station:USF.COMPS:FHP:1,2016-02-01T05:36:00Z,28.1530,-82.8010,18.08,1111122 
COMPS,ioos:station:USF.COMPS:FHP:1,2016-02-01T05:42:00Z,28.1530,-82.8010,18.0,1111122 
COMPS,ioos:station:USF.COMPS:FHP:1,2016-02-01T05:48:00Z,28.1530,-82.8010,17.94,1111122 
COMPS,ioos:station:USF.COMPS:FHP:1,2016-02-01T05:54:00Z,28.1530,-82.8010,17.94,1111122 
COMPS,ioos:station:USF.COMPS:FHP:1,2016-02-01T06:00:00Z,28.1530,-82.8010,17.95,1111122 
COMPS,ioos:station:USF.COMPS:FHP:1,2016-02-01T06:06:00Z,28.1530,-82.8010,18.06,1111122 
COMPS,ioos:station:USF.COMPS:FHP:1,2016-02-01T06:12:00Z,28.1530,-82.8010,18.05,1111122 
COMPS,ioos:station:USF.COMPS:FHP:1,2016-02-01T06:18:00Z,28.1530,-82.8010,18.08,1111122 
COMPS,ioos:station:USF.COMPS:FHP:1,2016-02-01T06:24:00Z,28.1530,-82.8010,18.17,1111122 
COMPS,ioos:station:USF.COMPS:FHP:1,2016-02-01T06:30:00Z,28.1530,-82.8010,18.08,1111122 
COMPS,ioos:station:USF.COMPS:FHP:1,2016-02-01T06:36:00Z,28.1530,-82.8010,18.02,1111122 
COMPS,ioos:station:USF.COMPS:FHP:1,2016-02-01T06:42:00Z,28.1530,-82.8010,17.94,1111122 
COMPS,ioos:station:USF.COMPS:FHP:1,2016-02-01T06:48:00Z,28.1530,-82.8010,18.03,1111122 
COMPS,ioos:station:USF.COMPS:FHP:1,2016-02-01T06:54:00Z,28.1530,-82.8010,18.08,1111122 
COMPS,ioos:station:USF.COMPS:FHP:1,2016-02-01T07:00:00Z,28.1530,-82.8010,18.08,1111122 
COMPS,ioos:station:USF.COMPS:FHP:1,2016-02-01T07:06:00Z,28.1530,-82.8010,18.09,1111122 
COMPS,ioos:station:USF.COMPS:FHP:1,2016-02-01T07:12:00Z,28.1530,-82.8010,18.14,1111122 
COMPS,ioos:station:USF.COMPS:FHP:1,2016-02-01T07:18:00Z,28.1530,-82.8010,18.21,1111122 
COMPS,ioos:station:USF.COMPS:FHP:1,2016-02-01T07:24:00Z,28.1530,-82.8010,18.11,1111122 
COMPS,ioos:station:USF.COMPS:FHP:1,2016-02-01T07:30:00Z,28.1530,-82.8010,18.07,1111122 
COMPS,ioos:station:USF.COMPS:FHP:1,2016-02-01T07:36:00Z,28.1530,-82.8010,18.08,1111122 
COMPS,ioos:station:USF.COMPS:FHP:1,2016-02-01T07:42:00Z,28.1530,-82.8010,18.08,1111122 
COMPS,ioos:station:USF.COMPS:FHP:1,2016-02-01T07:48:00Z,28.1530,-82.8010,18.14,1111122 
COMPS,ioos:station:USF.COMPS:FHP:1,2016-02-01T07:54:00Z,28.1530,-82.8010,18.1,1111122 
COMPS,ioos:station:USF.COMPS:FHP:1,2016-02-01T08:00:00Z,28.1530,-82.8010,18.2,1111122 
COMPS,ioos:station:USF.COMPS:FHP:1,2016-02-01T08:06:00Z,28.1530,-82.8010,18.28,1111122 
COMPS,ioos:station:USF.COMPS:FHP:1,2016-02-01T08:12:00Z,28.1530,-82.8010,18.3,1111122 
COMPS,ioos:station:USF.COMPS:FHP:1,2016-02-01T08:18:00Z,28.1530,-82.8010,18.28,1111122 
COMPS,ioos:station:USF.COMPS:FHP:1,2016-02-01T08:24:00Z,28.1530,-82.8010,18.2,1111122 
COMPS,ioos:station:USF.COMPS:FHP:1,2016-02-01T08:30:00Z,28.1530,-82.8010,18.16,1111122 
COMPS,ioos:station:USF.COMPS:FHP:1,2016-02-01T08:36:00Z,28.1530,-82.8010,18.21,1111122 
COMPS,ioos:station:USF.COMPS:FHP:1,2016-02-01T08:42:00Z,28.1530,-82.8010,18.27,1111122 
COMPS,ioos:station:USF.COMPS:FHP:1,2016-02-01T08:48:00Z,28.1530,-82.8010,18.29,1111122 
COMPS,ioos:station:USF.COMPS:FHP:1,2016-02-01T08:54:00Z,28.1530,-82.8010,18.24,1111122 
COMPS,ioos:station:USF.COMPS:FHP:1,2016-02-01T09:00:00Z,28.1530,-82.8010,18.21,1111122 
COMPS,ioos:station:USF.COMPS:FHP:1,2016-02-01T09:06:00Z,28.1530,-82.8010,18.21,1111122 
COMPS,ioos:station:USF.COMPS:FHP:1,2016-02-01T09:12:00Z,28.1530,-82.8010,18.18,1111122 
COMPS,ioos:station:USF.COMPS:FHP:1,2016-02-01T09:18:00Z,28.1530,-82.8010,18.21,1111122 
COMPS,ioos:station:USF.COMPS:FHP:1,2016-02-01T09:24:00Z,28.1530,-82.8010,18.21,1111122 
COMPS,ioos:station:USF.COMPS:FHP:1,2016-02-01T09:30:00Z,28.1530,-82.8010,18.09,1111122 
COMPS,ioos:station:USF.COMPS:FHP:1,2016-02-01T09:36:00Z,28.1530,-82.8010,17.96,1111122 
COMPS,ioos:station:USF.COMPS:FHP:1,2016-02-01T09:42:00Z,28.1530,-82.8010,18.08,1111122 
COMPS,ioos:station:USF.COMPS:FHP:1,2016-02-01T09:48:00Z,28.1530,-82.8010,18.09,1111122 
COMPS,ioos:station:USF.COMPS:FHP:1,2016-02-01T09:54:00Z,28.1530,-82.8010,18.23,1111122 
COMPS,ioos:station:USF.COMPS:FHP:1,2016-02-01T10:00:00Z,28.1530,-82.8010,18.33,1111122 
COMPS,ioos:station:USF.COMPS:FHP:1,2016-02-01T10:06:00Z,28.1530,-82.8010,18.39,1111122 
COMPS,ioos:station:USF.COMPS:FHP:1,2016-02-01T10:12:00Z,28.1530,-82.8010,18.26,1111122 
COMPS,ioos:station:USF.COMPS:FHP:1,2016-02-01T10:18:00Z,28.1530,-82.8010,18.36,1111122 
COMPS,ioos:station:USF.COMPS:FHP:1,2016-02-01T10:24:00Z,28.1530,-82.8010,18.48,1111122 
COMPS,ioos:station:USF.COMPS:FHP:1,2016-02-01T10:30:00Z,28.1530,-82.8010,18.53,1111122 
COMPS,ioos:station:USF.COMPS:FHP:1,2016-02-01T10:36:00Z,28.1530,-82.8010,18.48,1111122 
COMPS,ioos:station:USF.COMPS:FHP:1,2016-02-01T10:42:00Z,28.1530,-82.8010,18.42,1111122 
COMPS,ioos:station:USF.COMPS:FHP:1,2016-02-01T10:48:00Z,28.1530,-82.8010,18.37,1111122 
COMPS,ioos:station:USF.COMPS:FHP:1,2016-02-01T10:54:00Z,28.1530,-82.8010,18.34,1111122 
COMPS,ioos:station:USF.COMPS:FHP:1,2016-02-01T11:00:00Z,28.1530,-82.8010,18.26,1111122 
COMPS,ioos:station:USF.COMPS:FHP:1,2016-02-01T11:06:00Z,28.1530,-82.8010,18.2,1111122 
COMPS,ioos:station:USF.COMPS:FHP:1,2016-02-01T11:12:00Z,28.1530,-82.8010,18.21,1111122 
COMPS,ioos:station:USF.COMPS:FHP:1,2016-02-01T11:18:00Z,28.1530,-82.8010,18.21,1111122 
COMPS,ioos:station:USF.COMPS:FHP:1,2016-02-01T11:24:00Z,28.1530,-82.8010,18.28,1111122 
COMPS,ioos:station:USF.COMPS:FHP:1,2016-02-01T11:30:00Z,28.1530,-82.8010,18.35,1111122 
COMPS,ioos:station:USF.COMPS:FHP:1,2016-02-01T11:36:00Z,28.1530,-82.8010,18.34,1111122 
COMPS,ioos:station:USF.COMPS:FHP:1,2016-02-01T11:42:00Z,28.1530,-82.8010,18.25,1111122 
COMPS,ioos:station:USF.COMPS:FHP:1,2016-02-01T11:48:00Z,28.1530,-82.8010,18.3,1111122 
COMPS,ioos:station:USF.COMPS:FHP:1,2016-02-01T11:54:00Z,28.1530,-82.8010,18.23,1111122 
COMPS,ioos:station:USF.COMPS:FHP:1,2016-02-01T12:00:00Z,28.1530,-82.8010,18.31,1111122 
COMPS,ioos:station:USF.COMPS:FHP:1,2016-02-01T12:06:00Z,28.1530,-82.8010,18.32,1111122 
COMPS,ioos:station:USF.COMPS:FHP:1,2016-02-01T12:12:00Z,28.1530,-82.8010,18.21,1111122 
COMPS,ioos:station:USF.COMPS:FHP:1,2016-02-01T12:18:00Z,28.1530,-82.8010,18.25,1111122 
COMPS,ioos:station:USF.COMPS:FHP:1,2016-02-01T12:24:00Z,28.1530,-82.8010,18.35,1111122 
COMPS,ioos:station:USF.COMPS:FHP:1,2016-02-01T12:30:00Z,28.1530,-82.8010,18.31,1111122 
COMPS,ioos:station:USF.COMPS:FHP:1,2016-02-01T12:36:00Z,28.1530,-82.8010,18.08,1111122 
COMPS,ioos:station:USF.COMPS:FHP:1,2016-02-01T12:42:00Z,28.1530,-82.8010,17.98,1111122 
COMPS,ioos:station:USF.COMPS:FHP:1,2016-02-01T12:48:00Z,28.1530,-82.8010,18.06,1111122 
COMPS,ioos:station:USF.COMPS:FHP:1,2016-02-01T12:54:00Z,28.1530,-82.8010,17.97,1111122 
COMPS,ioos:station:USF.COMPS:FHP:1,2016-02-01T13:00:00Z,28.1530,-82.8010,18.08,1111122 
COMPS,ioos:station:USF.COMPS:FHP:1,2016-02-01T13:06:00Z,28.1530,-82.8010,18.19,1111122 
COMPS,ioos:station:USF.COMPS:FHP:1,2016-02-01T13:12:00Z,28.1530,-82.8010,18.11,1111122 
COMPS,ioos:station:USF.COMPS:FHP:1,2016-02-01T13:18:00Z,28.1530,-82.8010,18.22,1111122 
COMPS,ioos:station:USF.COMPS:FHP:1,2016-02-01T13:24:00Z,28.1530,-82.8010,18.21,1111122 
COMPS,ioos:station:USF.COMPS:FHP:1,2016-02-01T13:30:00Z,28.1530,-82.8010,18.29,1111122 
COMPS,ioos:station:USF.COMPS:FHP:1,2016-02-01T13:36:00Z,28.1530,-82.8010,18.49,1111122 
COMPS,ioos:station:USF.COMPS:FHP:1,2016-02-01T13:42:00Z,28.1530,-82.8010,18.7,1111122 
COMPS,ioos:station:USF.COMPS:FHP:1,2016-02-01T13:48:00Z,28.1530,-82.8010,18.87,1111122 
COMPS,ioos:station:USF.COMPS:FHP:1,2016-02-01T13:54:00Z,28.1530,-82.8010,19.17,1111122 
COMPS,ioos:station:USF.COMPS:FHP:1,2016-02-01T14:00:00Z,28.1530,-82.8010,19.53,1111122 
COMPS,ioos:station:USF.COMPS:FHP:1,2016-02-01T14:06:00Z,28.1530,-82.8010,19.65,1111122 
COMPS,ioos:station:USF.COMPS:FHP:1,2016-02-01T14:12:00Z,28.1530,-82.8010,19.82,1111122 
COMPS,ioos:station:USF.COMPS:FHP:1,2016-02-01T14:18:00Z,28.1530,-82.8010,19.87,1111122 
COMPS,ioos:station:USF.COMPS:FHP:1,2016-02-01T14:24:00Z,28.1530,-82.8010,19.77,1111122 
COMPS,ioos:station:USF.COMPS:FHP:1,2016-02-01T14:30:00Z,28.1530,-82.8010,20.0,1111122 
COMPS,ioos:station:USF.COMPS:FHP:1,2016-02-01T14:36:00Z,28.1530,-82.8010,19.83,1111122 
COMPS,ioos:station:USF.COMPS:FHP:1,2016-02-01T14:42:00Z,28.1530,-82.8010,19.92,1111122 
COMPS,ioos:station:USF.COMPS:FHP:1,2016-02-01T14:48:00Z,28.1530,-82.8010,20.09,1111122 
COMPS,ioos:station:USF.COMPS:FHP:1,2016-02-01T14:54:00Z,28.1530,-82.8010,20.12,1111122 
COMPS,ioos:station:USF.COMPS:FHP:1,2016-02-01T15:00:00Z,28.1530,-82.8010,20.26,1111122 
COMPS,ioos:station:USF.COMPS:FHP:1,2016-02-01T15:06:00Z,28.1530,-82.8010,20.24,1111122 
COMPS,ioos:station:USF.COMPS:FHP:1,2016-02-01T15:12:00Z,28.1530,-82.8010,20.13,1111122 
COMPS,ioos:station:USF.COMPS:FHP:1,2016-02-01T15:18:00Z,28.1530,-82.8010,20.3,1111122 
COMPS,ioos:station:USF.COMPS:FHP:1,2016-02-01T15:24:00Z,28.1530,-82.8010,19.89,1111122 
COMPS,ioos:station:USF.COMPS:FHP:1,2016-02-01T15:30:00Z,28.1530,-82.8010,19.73,1111122 
COMPS,ioos:station:USF.COMPS:FHP:1,2016-02-01T15:36:00Z,28.1530,-82.8010,19.65,1111122 
COMPS,ioos:station:USF.COMPS:FHP:1,2016-02-01T15:42:00Z,28.1530,-82.8010,19.59,1111122 
COMPS,ioos:station:USF.COMPS:FHP:1,2016-02-01T15:48:00Z,28.1530,-82.8010,19.68,1111122 
COMPS,ioos:station:USF.COMPS:FHP:1,2016-02-01T15:54:00Z,28.1530,-82.8010,19.86,1111122 
COMPS,ioos:station:USF.COMPS:FHP:1,2016-02-01T16:00:00Z,28.1530,-82.8010,19.52,1111122 
COMPS,ioos:station:USF.COMPS:FHP:1,2016-02-01T16:06:00Z,28.1530,-82.8010,19.43,1111122 
COMPS,ioos:station:USF.COMPS:FHP:1,2016-02-01T16:12:00Z,28.1530,-82.8010,19.62,1111122 
COMPS,ioos:station:USF.COMPS:FHP:1,2016-02-01T16:18:00Z,28.1530,-82.8010,19.64,1111122 
COMPS,ioos:station:USF.COMPS:FHP:1,2016-02-01T16:24:00Z,28.1530,-82.8010,19.63,1111122 
COMPS,ioos:station:USF.COMPS:FHP:1,2016-02-01T16:30:00Z,28.1530,-82.8010,19.77,1111122 
COMPS,ioos:station:USF.COMPS:FHP:1,2016-02-01T16:36:00Z,28.1530,-82.8010,20.3,1111122 
COMPS,ioos:station:USF.COMPS:FHP:1,2016-02-01T16:42:00Z,28.1530,-82.8010,20.52,1111122 
COMPS,ioos:station:USF.COMPS:FHP:1,2016-02-01T16:48:00Z,28.1530,-82.8010,20.52,1111122 
COMPS,ioos:station:USF.COMPS:FHP:1,2016-02-01T16:54:00Z,28.1530,-82.8010,20.55,1111122 
COMPS,ioos:station:USF.COMPS:FHP:1,2016-02-01T17:00:00Z,28.1530,-82.8010,20.75,1111122 
COMPS,ioos:station:USF.COMPS:FHP:1,2016-02-01T17:06:00Z,28.1530,-82.8010,20.65,1111122 
COMPS,ioos:station:USF.COMPS:FHP:1,2016-02-01T17:12:00Z,28.1530,-82.8010,20.71,1111122 
COMPS,ioos:station:USF.COMPS:FHP:1,2016-02-01T17:18:00Z,28.1530,-82.8010,21.12,1111122 
COMPS,ioos:station:USF.COMPS:FHP:1,2016-02-01T17:24:00Z,28.1530,-82.8010,21.43,1111122 
COMPS,ioos:station:USF.COMPS:FHP:1,2016-02-01T17:30:00Z,28.1530,-82.8010,21.06,1111122 
COMPS,ioos:station:USF.COMPS:FHP:1,2016-02-01T17:36:00Z,28.1530,-82.8010,20.91,1111122 
COMPS,ioos:station:USF.COMPS:FHP:1,2016-02-01T17:42:00Z,28.1530,-82.8010,20.57,1111122 
COMPS,ioos:station:USF.COMPS:FHP:1,2016-02-01T17:48:00Z,28.1530,-82.8010,20.46,1111122 
COMPS,ioos:station:USF.COMPS:FHP:1,2016-02-01T17:54:00Z,28.1530,-82.8010,20.19,1111122 
COMPS,ioos:station:USF.COMPS:FHP:1,2016-02-01T18:00:00Z,28.1530,-82.8010,19.83,1111122 
COMPS,ioos:station:USF.COMPS:FHP:1,2016-02-01T18:06:00Z,28.1530,-82.8010,19.98,1111122 
COMPS,ioos:station:USF.COMPS:FHP:1,2016-02-01T18:12:00Z,28.1530,-82.8010,20.04,1111122 
COMPS,ioos:station:USF.COMPS:FHP:1,2016-02-01T18:18:00Z,28.1530,-82.8010,20.01,1111122 
COMPS,ioos:station:USF.COMPS:FHP:1,2016-02-01T18:24:00Z,28.1530,-82.8010,20.0,1111122 
COMPS,ioos:station:USF.COMPS:FHP:1,2016-02-01T18:30:00Z,28.1530,-82.8010,19.83,1111122 
COMPS,ioos:station:USF.COMPS:FHP:1,2016-02-01T18:36:00Z,28.1530,-82.8010,19.97,1111122 
COMPS,ioos:station:USF.COMPS:FHP:1,2016-02-01T18:42:00Z,28.1530,-82.8010,19.85,1111122 
COMPS,ioos:station:USF.COMPS:FHP:1,2016-02-01T18:48:00Z,28.1530,-82.8010,19.82,1111122 
COMPS,ioos:station:USF.COMPS:FHP:1,2016-02-01T18:54:00Z,28.1530,-82.8010,19.74,1111122 
COMPS,ioos:station:USF.COMPS:FHP:1,2016-02-01T19:00:00Z,28.1530,-82.8010,19.61,1111122 
COMPS,ioos:station:USF.COMPS:FHP:1,2016-02-01T19:06:00Z,28.1530,-82.8010,19.66,1111122 
COMPS,ioos:station:USF.COMPS:FHP:1,2016-02-01T19:12:00Z,28.1530,-82.8010,19.75,1111122 
COMPS,ioos:station:USF.COMPS:FHP:1,2016-02-01T19:18:00Z,28.1530,-82.8010,19.67,1111122 
COMPS,ioos:station:USF.COMPS:FHP:1,2016-02-01T19:24:00Z,28.1530,-82.8010,19.6,1111122 
COMPS,ioos:station:USF.COMPS:FHP:1,2016-02-01T19:30:00Z,28.1530,-82.8010,19.54,1111122 
COMPS,ioos:station:USF.COMPS:FHP:1,2016-02-01T19:36:00Z,28.1530,-82.8010,19.38,1111122 
COMPS,ioos:station:USF.COMPS:FHP:1,2016-02-01T19:42:00Z,28.1530,-82.8010,19.33,1111122 
COMPS,ioos:station:USF.COMPS:FHP:1,2016-02-01T19:48:00Z,28.1530,-82.8010,19.26,1111122 
COMPS,ioos:station:USF.COMPS:FHP:1,2016-02-01T19:54:00Z,28.1530,-82.8010,19.31,1111122 
COMPS,ioos:station:USF.COMPS:FHP:1,2016-02-01T20:00:00Z,28.1530,-82.8010,19.32,1111122 
COMPS,ioos:station:USF.COMPS:FHP:1,2016-02-01T20:06:00Z,28.1530,-82.8010,19.3,1111122 
COMPS,ioos:station:USF.COMPS:FHP:1,2016-02-01T20:12:00Z,28.1530,-82.8010,19.26,1111122 
COMPS,ioos:station:USF.COMPS:FHP:1,2016-02-01T20:18:00Z,28.1530,-82.8010,19.15,1111122 
COMPS,ioos:station:USF.COMPS:FHP:1,2016-02-01T20:24:00Z,28.1530,-82.8010,19.06,1111122 
COMPS,ioos:station:USF.COMPS:FHP:1,2016-02-01T20:30:00Z,28.1530,-82.8010,19.1,1111122 
COMPS,ioos:station:USF.COMPS:FHP:1,2016-02-01T20:36:00Z,28.1530,-82.8010,19.04,1111122 
COMPS,ioos:station:USF.COMPS:FHP:1,2016-02-01T20:42:00Z,28.1530,-82.8010,19.09,1111122 
COMPS,ioos:station:USF.COMPS:FHP:1,2016-02-01T20:48:00Z,28.1530,-82.8010,19.24,1111122 
COMPS,ioos:station:USF.COMPS:FHP:1,2016-02-01T20:54:00Z,28.1530,-82.8010,19.2,1111122 
COMPS,ioos:station:USF.COMPS:FHP:1,2016-02-01T21:00:00Z,28.1530,-82.8010,19.28,1111122 
COMPS,ioos:station:USF.COMPS:FHP:1,2016-02-01T21:06:00Z,28.1530,-82.8010,19.18,1111122 
COMPS,ioos:station:USF.COMPS:FHP:1,2016-02-01T21:12:00Z,28.1530,-82.8010,19.21,1111122 
COMPS,ioos:station:USF.COMPS:FHP:1,2016-02-01T21:18:00Z,28.1530,-82.8010,19.22,1111122 
COMPS,ioos:station:USF.COMPS:FHP:1,2016-02-01T21:24:00Z,28.1530,-82.8010,19.05,1111122 
COMPS,ioos:station:USF.COMPS:FHP:1,2016-02-01T21:30:00Z,28.1530,-82.8010,19.03,1111122 
COMPS,ioos:station:USF.COMPS:FHP:1,2016-02-01T21:36:00Z,28.1530,-82.8010,19.07,1111122 
COMPS,ioos:station:USF.COMPS:FHP:1,2016-02-01T21:42:00Z,28.1530,-82.8010,19.08,1111122 
COMPS,ioos:station:USF.COMPS:FHP:1,2016-02-01T21:48:00Z,28.1530,-82.8010,19.14,1111122 
COMPS,ioos:station:USF.COMPS:FHP:1,2016-02-01T21:54:00Z,28.1530,-82.8010,19.12,1111122 
COMPS,ioos:station:USF.COMPS:FHP:1,2016-02-01T22:00:00Z,28.1530,-82.8010,19.08,1111122 
COMPS,ioos:station:USF.COMPS:FHP:1,2016-02-01T22:06:00Z,28.1530,-82.8010,19.03,1111122 
COMPS,ioos:station:USF.COMPS:FHP:1,2016-02-01T22:12:00Z,28.1530,-82.8010,19.0,1111122 
COMPS,ioos:station:USF.COMPS:FHP:1,2016-02-01T22:18:00Z,28.1530,-82.8010,19.04,1111122 
COMPS,ioos:station:USF.COMPS:FHP:1,2016-02-01T22:24:00Z,28.1530,-82.8010,18.73,1111122 
COMPS,ioos:station:USF.COMPS:FHP:1,2016-02-01T22:30:00Z,28.1530,-82.8010,18.36,1111122 
COMPS,ioos:station:USF.COMPS:FHP:1,2016-02-01T22:36:00Z,28.1530,-82.8010,18.46,1111122 
COMPS,ioos:station:USF.COMPS:FHP:1,2016-02-01T22:42:00Z,28.1530,-82.8010,18.54,1111122 
COMPS,ioos:station:USF.COMPS:FHP:1,2016-02-01T22:48:00Z,28.1530,-82.8010,18.47,1111122 
COMPS,ioos:station:USF.COMPS:FHP:1,2016-02-01T22:54:00Z,28.1530,-82.8010,18.36,1111122 
COMPS,ioos:station:USF.COMPS:FHP:1,2016-02-01T23:00:00Z,28.1530,-82.8010,18.23,1111122 
COMPS,ioos:station:USF.COMPS:FHP:1,2016-02-01T23:06:00Z,28.1530,-82.8010,18.25,1111122 
COMPS,ioos:station:USF.COMPS:FHP:1,2016-02-01T23:12:00Z,28.1530,-82.8010,18.29,1111122 
COMPS,ioos:station:USF.COMPS:FHP:1,2016-02-01T23:18:00Z,28.1530,-82.8010,18.17,1111122 
COMPS,ioos:station:USF.COMPS:FHP:1,2016-02-01T23:24:00Z,28.1530,-82.8010,18.2,1111122 
COMPS,ioos:station:USF.COMPS:FHP:1,2016-02-01T23:30:00Z,28.1530,-82.8010,18.17,1111122 
COMPS,ioos:station:USF.COMPS:FHP:1,2016-02-01T23:36:00Z,28.1530,-82.8010,18.17,1111122 
COMPS,ioos:station:USF.COMPS:FHP:1,2016-02-01T23:42:00Z,28.1530,-82.8010,18.17,1111122 
COMPS,ioos:station:USF.COMPS:FHP:1,2016-02-01T23:48:00Z,28.1530,-82.8010,18.2,1111122 
COMPS,ioos:station:USF.COMPS:FHP:1,2016-02-01T23:54:00Z,28.1530,-82.8010,18.29,1111122 
COMPS,ioos:station:USF.COMPS:FHP:1,2016-02-02T00:00:00Z,28.1530,-82.8010,18.31,1111122 
COMPS,ioos:station:USF.COMPS:FHP:1,2016-02-02T00:06:00Z,28.1530,-82.8010,18.4,1111122 
COMPS,ioos:station:USF.COMPS:FHP:1,2016-02-02T00:12:00Z,28.1530,-82.8010,18.4,1111122 
COMPS,ioos:station:USF.COMPS:FHP:1,2016-02-02T00:18:00Z,28.1530,-82.8010,18.48,1111122 
COMPS,ioos:station:USF.COMPS:FHP:1,2016-02-02T00:24:00Z,28.1530,-82.8010,18.6,1111122 
COMPS,ioos:station:USF.COMPS:FHP:1,2016-02-02T00:30:00Z,28.1530,-82.8010,18.48,1111122 
COMPS,ioos:station:USF.COMPS:FHP:1,2016-02-02T00:36:00Z,28.1530,-82.8010,18.47,1111122 
COMPS,ioos:station:USF.COMPS:FHP:1,2016-02-02T00:42:00Z,28.1530,-82.8010,18.47,1111122 
COMPS,ioos:station:USF.COMPS:FHP:1,2016-02-02T00:48:00Z,28.1530,-82.8010,18.34,1111122 
COMPS,ioos:station:USF.COMPS:FHP:1,2016-02-02T00:54:00Z,28.1530,-82.8010,18.26,1111122 
COMPS,ioos:station:USF.COMPS:FHP:1,2016-02-02T01:00:00Z,28.1530,-82.8010,18.11,1111122 
COMPS,ioos:station:USF.COMPS:FHP:1,2016-02-02T01:06:00Z,28.1530,-82.8010,18.3,1111122 
COMPS,ioos:station:USF.COMPS:FHP:1,2016-02-02T01:12:00Z,28.1530,-82.8010,18.26,1111122 
COMPS,ioos:station:USF.COMPS:FHP:1,2016-02-02T01:18:00Z,28.1530,-82.8010,18.24,1111122 
COMPS,ioos:station:USF.COMPS:FHP:1,2016-02-02T01:24:00Z,28.1530,-82.8010,18.46,1111122 
COMPS,ioos:station:USF.COMPS:FHP:1,2016-02-02T01:30:00Z,28.1530,-82.8010,18.38,1111122 
COMPS,ioos:station:USF.COMPS:FHP:1,2016-02-02T01:36:00Z,28.1530,-82.8010,18.36,1111122 
COMPS,ioos:station:USF.COMPS:FHP:1,2016-02-02T01:42:00Z,28.1530,-82.8010,18.41,1111122 
COMPS,ioos:station:USF.COMPS:FHP:1,2016-02-02T01:48:00Z,28.1530,-82.8010,18.62,1111122 
COMPS,ioos:station:USF.COMPS:FHP:1,2016-02-02T01:54:00Z,28.1530,-82.8010,18.63,1111122 
COMPS,ioos:station:USF.COMPS:FHP:1,2016-02-02T04:00:00Z,28.1530,-82.8010,18.74,1111122 
COMPS,ioos:station:USF.COMPS:FHP:1,2016-02-02T04:06:00Z,28.1530,-82.8010,18.81,1111122 
COMPS,ioos:station:USF.COMPS:FHP:1,2016-02-02T04:12:00Z,28.1530,-82.8010,18.75,1111122 
COMPS,ioos:station:USF.COMPS:FHP:1,2016-02-02T04:18:00Z,28.1530,-82.8010,18.74,1111122 
COMPS,ioos:station:USF.COMPS:FHP:1,2016-02-02T04:24:00Z,28.1530,-82.8010,18.73,1111122 
COMPS,ioos:station:USF.COMPS:FHP:1,2016-02-02T04:30:00Z,28.1530,-82.8010,18.75,1111122 
COMPS,ioos:station:USF.COMPS:FHP:1,2016-02-02T04:36:00Z,28.1530,-82.8010,18.75,1111122 
COMPS,ioos:station:USF.COMPS:FHP:1,2016-02-02T04:42:00Z,28.1530,-82.8010,18.69,1111122 
COMPS,ioos:station:USF.COMPS:FHP:1,2016-02-02T04:48:00Z,28.1530,-82.8010,18.59,1111122 
COMPS,ioos:station:USF.COMPS:FHP:1,2016-02-02T04:54:00Z,28.1530,-82.8010,18.48,1111122 
COMPS,ioos:station:USF.COMPS:FHP:1,2016-02-02T05:00:00Z,28.1530,-82.8010,18.48,1111122 
COMPS,ioos:station:USF.COMPS:FHP:1,2016-02-02T05:06:00Z,28.1530,-82.8010,18.48,1111122 
COMPS,ioos:station:USF.COMPS:FHP:1,2016-02-02T05:12:00Z,28.1530,-82.8010,17.78,1111122 
COMPS,ioos:station:USF.COMPS:FHP:1,2016-02-02T05:18:00Z,28.1530,-82.8010,17.84,1111122 
COMPS,ioos:station:USF.COMPS:FHP:1,2016-02-02T05:24:00Z,28.1530,-82.8010,17.94,1111122 
COMPS,ioos:station:USF.COMPS:FHP:1,2016-02-02T05:30:00Z,28.1530,-82.8010,18.05,1111122 
COMPS,ioos:station:USF.COMPS:FHP:1,2016-02-02T05:36:00Z,28.1530,-82.8010,18.21,1111122 
COMPS,ioos:station:USF.COMPS:FHP:1,2016-02-02T05:42:00Z,28.1530,-82.8010,18.25,1111122 
COMPS,ioos:station:USF.COMPS:FHP:1,2016-02-02T05:48:00Z,28.1530,-82.8010,18.22,1111122 
COMPS,ioos:station:USF.COMPS:FHP:1,2016-02-02T05:54:00Z,28.1530,-82.8010,18.24,1111122 
COMPS,ioos:station:USF.COMPS:FHP:1,2016-02-02T06:00:00Z,28.1530,-82.8010,18.24,1111122 
COMPS,ioos:station:USF.COMPS:FHP:1,2016-02-02T06:06:00Z,28.1530,-82.8010,18.22,1111122 
COMPS,ioos:station:USF.COMPS:FHP:1,2016-02-02T06:12:00Z,28.1530,-82.8010,18.22,1111122 
COMPS,ioos:station:USF.COMPS:FHP:1,2016-02-02T06:18:00Z,28.1530,-82.8010,18.21,1111122 
COMPS,ioos:station:USF.COMPS:FHP:1,2016-02-02T06:24:00Z,28.1530,-82.8010,18.21,1111122 
COMPS,ioos:station:USF.COMPS:FHP:1,2016-02-02T06:30:00Z,28.1530,-82.8010,18.2,1111122 
COMPS,ioos:station:USF.COMPS:FHP:1,2016-02-02T06:36:00Z,28.1530,-82.8010,18.09,1111122 
COMPS,ioos:station:USF.COMPS:FHP:1,2016-02-02T06:42:00Z,28.1530,-82.8010,18.21,1111122 
COMPS,ioos:station:USF.COMPS:FHP:1,2016-02-02T06:48:00Z,28.1530,-82.8010,18.21,1111122 
COMPS,ioos:station:USF.COMPS:FHP:1,2016-02-02T06:54:00Z,28.1530,-82.8010,18.17,1111122 
COMPS,ioos:station:USF.COMPS:FHP:1,2016-02-02T07:00:00Z,28.1530,-82.8010,18.02,1111122 
COMPS,ioos:station:USF.COMPS:FHP:1,2016-02-02T07:06:00Z,28.1530,-82.8010,18.04,1111122 
COMPS,ioos:station:USF.COMPS:FHP:1,2016-02-02T07:12:00Z,28.1530,-82.8010,18.08,1111122 
COMPS,ioos:station:USF.COMPS:FHP:1,2016-02-02T07:18:00Z,28.1530,-82.8010,18.08,1111122 
COMPS,ioos:station:USF.COMPS:FHP:1,2016-02-02T07:24:00Z,28.1530,-82.8010,18.08,1111122 
COMPS,ioos:station:USF.COMPS:FHP:1,2016-02-02T07:30:00Z,28.1530,-82.8010,18.08,1111122 
COMPS,ioos:station:USF.COMPS:FHP:1,2016-02-02T07:36:00Z,28.1530,-82.8010,18.19,1111122 
COMPS,ioos:station:USF.COMPS:FHP:1,2016-02-02T07:42:00Z,28.1530,-82.8010,18.27,1111122 
COMPS,ioos:station:USF.COMPS:FHP:1,2016-02-02T07:48:00Z,28.1530,-82.8010,18.3,1111122 
COMPS,ioos:station:USF.COMPS:FHP:1,2016-02-02T07:54:00Z,28.1530,-82.8010,18.32,1111122 
COMPS,ioos:station:USF.COMPS:FHP:1,2016-02-02T08:00:00Z,28.1530,-82.8010,18.24,1111122 
COMPS,ioos:station:USF.COMPS:FHP:1,2016-02-02T08:06:00Z,28.1530,-82.8010,18.24,1111122 